Wetterdaten: aktuell Mittwoch, 24.07.2019 06:28
Datum Zeit Temp. I. Temp. 2m Temp. 5cm Feuchte I. Feuchte 2m Luftdruck Regen Wind Richtung Richtung Taupunkt Windchill Windben
24.07.2019 06:28 22,0 C 15,8 C 17,5 C 67 % 90 % 1018,3 hPa 0,0 l/m 0,7 km/h (0 Bft) S 180 14,2 C 15,8 C 0,0 km/h (0 Bft)
24.07.2019 06:26 22,0 C 15,7 C 17,4 C 67 % 90 % 1018,3 hPa 0,0 l/m 0,5 km/h (0 Bft) SO 135 14,1 C 15,7 C 3,9 km/h (1 Bft)
24.07.2019 06:24 22,1 C 15,7 C 17,4 C 66 % 90 % 1018,3 hPa 0,0 l/m 0,2 km/h (0 Bft) S-SO 157 14,1 C 15,7 C 0,0 km/h (0 Bft)
24.07.2019 06:22 22,1 C 15,6 C 17,3 C 66 % 90 % 1018,3 hPa 0,0 l/m 0,5 km/h (0 Bft) S-SO 157 14,0 C 15,6 C 0,0 km/h (0 Bft)
24.07.2019 06:20 22,1 C 15,5 C 17,3 C 66 % 90 % 1018,3 hPa 0,0 l/m 1,0 km/h (0 Bft) S-SO 157 13,9 C 15,5 C 0,0 km/h (0 Bft)
24.07.2019 06:18 22,1 C 15,5 C 17,2 C 66 % 89 % 1018,3 hPa 0,0 l/m 1,4 km/h (1 Bft) S 180 13,7 C 15,5 C 0,0 km/h (0 Bft)
24.07.2019 06:16 22,2 C 15,4 C 17,2 C 66 % 89 % 1018,3 hPa 0,0 l/m 1,9 km/h (1 Bft) SO 135 13,6 C 15,4 C 0,0 km/h (0 Bft)
24.07.2019 06:14 22,2 C 15,4 C 17,2 C 66 % 89 % 1018,3 hPa 0,0 l/m 2,4 km/h (1 Bft) SO 135 13,6 C 15,4 C 0,0 km/h (0 Bft)
24.07.2019 06:12 22,3 C 15,6 C 17,0 C 66 % 89 % 1018,3 hPa 0,0 l/m 0,0 km/h (0 Bft) S-SO 157 13,8 C 15,6 C 0,0 km/h (0 Bft)
24.07.2019 06:10 22,3 C 15,6 C 17,0 C 66 % 89 % 1018,3 hPa 0,0 l/m 0,0 km/h (0 Bft) S-SO 157 13,8 C 15,6 C 0,0 km/h (0 Bft)
24.07.2019 06:08 22,2 C 15,6 C 17,0 C 66 % 89 % 1018,3 hPa 0,0 l/m 0,0 km/h (0 Bft) S-SO 157 13,8 C 15,6 C 0,0 km/h (0 Bft)
24.07.2019 06:06 22,4 C 15,6 C 17,0 C 66 % 89 % 1018,3 hPa 0,0 l/m 0,0 km/h (0 Bft) S-SO 157 13,8 C 15,6 C 0,0 km/h (0 Bft)
24.07.2019 06:04 22,4 C 15,6 C 17,0 C 66 % 89 % 1018,3 hPa 0,0 l/m 0,0 km/h (0 Bft) S-SO 157 13,8 C 15,6 C 0,0 km/h (0 Bft)
24.07.2019 06:02 22,4 C 15,6 C 17,0 C 66 % 89 % 1018,3 hPa 0,0 l/m 0,0 km/h (0 Bft) S-SO 157 13,8 C 15,6 C 0,0 km/h (0 Bft)
24.07.2019 06:00 22,5 C 15,6 C 17,0 C 66 % 89 % 1018,3 hPa 0,0 l/m 0,0 km/h (0 Bft) S-SO 157 13,8 C 15,6 C 0,0 km/h (0 Bft)
24.07.2019 05:58 22,5 C 15,6 C 16,9 C 66 % 89 % 1018,1 hPa 0,0 l/m 0,0 km/h (0 Bft) N-NO 22 13,8 C 15,6 C 0,0 km/h (0 Bft)
24.07.2019 05:56 22,5 C 15,6 C 16,9 C 66 % 89 % 1018,1 hPa 0,0 l/m 0,0 km/h (0 Bft) N-NO 22 13,8 C 15,6 C 0,0 km/h (0 Bft)
24.07.2019 05:54 22,5 C 15,7 C 16,9 C 66 % 89 % 1018,1 hPa 0,0 l/m 0,0 km/h (0 Bft) N-NO 22 13,9 C 15,7 C 0,0 km/h (0 Bft)
24.07.2019 05:52 22,5 C 15,7 C 16,9 C 66 % 89 % 1018,1 hPa 0,0 l/m 0,0 km/h (0 Bft) N-NO 22 13,9 C 15,7 C 0,0 km/h (0 Bft)
24.07.2019 05:50 22,5 C 15,7 C 16,8 C 66 % 89 % 1018,1 hPa 0,0 l/m 0,0 km/h (0 Bft) N-NO 22 13,9 C 15,7 C 0,0 km/h (0 Bft)
24.07.2019 05:48 22,5 C 15,7 C 16,8 C 66 % 89 % 1018,1 hPa 0,0 l/m 0,0 km/h (0 Bft) N-NO 22 13,9 C 15,7 C 0,0 km/h (0 Bft)
24.07.2019 05:46 22,5 C 15,7 C 16,8 C 66 % 89 % 1018,1 hPa 0,0 l/m 0,0 km/h (0 Bft) N-NO 22 13,9 C 15,7 C 0,0 km/h (0 Bft)
24.07.2019 05:44 22,5 C 15,8 C 16,8 C 66 % 89 % 1018,1 hPa 0,0 l/m 0,0 km/h (0 Bft) N-NO 22 14,0 C 15,8 C 0,0 km/h (0 Bft)
24.07.2019 05:42 22,5 C 15,8 C 16,8 C 66 % 89 % 1018,1 hPa 0,0 l/m 0,0 km/h (0 Bft) N-NO 22 14,0 C 15,8 C 0,0 km/h (0 Bft)
24.07.2019 05:40 22,6 C 15,9 C 16,8 C 66 % 87 % 1018,1 hPa 0,0 l/m 0,0 km/h (0 Bft) N-NO 22 13,7 C 15,9 C 0,0 km/h (0 Bft)
24.07.2019 05:38 22,6 C 16,0 C 16,8 C 66 % 87 % 1018,1 hPa 0,0 l/m 0,0 km/h (0 Bft) N-NO 22 13,8 C 16,0 C 0,0 km/h (0 Bft)
24.07.2019 05:36 22,6 C 16,0 C 16,9 C 66 % 87 % 1018,1 hPa 0,0 l/m 0,0 km/h (0 Bft) N-NO 22 13,8 C 16,0 C 0,0 km/h (0 Bft)
24.07.2019 05:34 22,6 C 16,1 C 16,8 C 67 % 87 % 1018,1 hPa 0,0 l/m 0,0 km/h (0 Bft) N-NO 22 13,9 C 16,1 C 0,0 km/h (0 Bft)
24.07.2019 05:32 22,6 C 16,1 C 16,8 C 67 % 87 % 1018,1 hPa 0,0 l/m 0,0 km/h (0 Bft) N-NO 22 13,9 C 16,1 C 0,0 km/h (0 Bft)
24.07.2019 05:30 22,6 C 16,1 C 16,9 C 67 % 87 % 1018,1 hPa 0,0 l/m 0,0 km/h (0 Bft) N-NO 22 13,9 C 16,1 C 0,0 km/h (0 Bft)
24.07.2019 05:28 22,6 C 16,2 C 16,9 C 67 % 87 % 1018,1 hPa 0,0 l/m 0,0 km/h (0 Bft) N 360 14,0 C 16,2 C 0,0 km/h (0 Bft)
24.07.2019 05:26 22,6 C 16,2 C 16,9 C 67 % 87 % 1018,1 hPa 0,0 l/m 0,0 km/h (0 Bft) N-NO 22 14,0 C 16,2 C 0,0 km/h (0 Bft)
24.07.2019 05:24 22,6 C 16,2 C 16,8 C 67 % 87 % 1018,1 hPa 0,0 l/m 0,0 km/h (0 Bft) N-NO 22 14,0 C 16,2 C 0,0 km/h (0 Bft)
24.07.2019 05:22 22,6 C 16,2 C 16,9 C 67 % 87 % 1018,1 hPa 0,0 l/m 0,0 km/h (0 Bft) N-NW 337 14,0 C 16,2 C 0,0 km/h (0 Bft)
24.07.2019 05:20 22,6 C 16,3 C 16,9 C 67 % 87 % 1018,1 hPa 0,0 l/m 0,0 km/h (0 Bft) N-NO 22 14,1 C 16,3 C 0,0 km/h (0 Bft)
24.07.2019 05:18 22,6 C 16,3 C 16,8 C 67 % 87 % 1018,2 hPa 0,0 l/m 0,0 km/h (0 Bft) N 360 14,1 C 16,3 C 0,0 km/h (0 Bft)
24.07.2019 05:16 22,6 C 16,3 C 16,8 C 67 % 87 % 1018,2 hPa 0,0 l/m 0,0 km/h (0 Bft) N-NW 337 14,1 C 16,3 C 0,0 km/h (0 Bft)
24.07.2019 05:14 22,5 C 16,3 C 16,8 C 67 % 87 % 1018,2 hPa 0,0 l/m 0,0 km/h (0 Bft) NW 315 14,1 C 16,3 C 0,0 km/h (0 Bft)
24.07.2019 05:12 22,5 C 16,3 C 16,9 C 67 % 87 % 1018,2 hPa 0,0 l/m 0,0 km/h (0 Bft) W-NW 292 14,1 C 16,3 C 0,0 km/h (0 Bft)
24.07.2019 05:10 22,5 C 16,4 C 16,9 C 67 % 87 % 1018,2 hPa 0,0 l/m 0,0 km/h (0 Bft) W-NW 292 14,2 C 16,4 C 0,0 km/h (0 Bft)
24.07.2019 05:08 22,5 C 16,4 C 16,8 C 67 % 87 % 1018,2 hPa 0,0 l/m 0,0 km/h (0 Bft) W-NW 292 14,2 C 16,4 C 0,0 km/h (0 Bft)
24.07.2019 05:06 22,4 C 16,4 C 16,8 C 67 % 87 % 1018,2 hPa 0,0 l/m 0,0 km/h (0 Bft) S-SW 202 14,2 C 16,4 C 0,0 km/h (0 Bft)
24.07.2019 05:04 22,4 C 16,5 C 16,8 C 67 % 87 % 1018,2 hPa 0,0 l/m 0,0 km/h (0 Bft) S-SW 202 14,3 C 16,5 C 0,0 km/h (0 Bft)
24.07.2019 05:01 22,4 C 16,4 C 16,8 C 67 % 87 % 1018,2 hPa 0,0 l/m 0,0 km/h (0 Bft) S-SW 202 14,2 C 16,4 C 0,0 km/h (0 Bft)
24.07.2019 05:00 22,4 C 16,3 C 16,9 C 67 % 87 % 1018,2 hPa 0,0 l/m 0,0 km/h (0 Bft) S-SW 202 14,1 C 16,3 C 0,0 km/h (0 Bft)
24.07.2019 04:58 22,4 C 16,3 C 16,9 C 67 % 87 % 1018,1 hPa 0,0 l/m 0,0 km/h (0 Bft) S 180 14,1 C 16,3 C 0,0 km/h (0 Bft)
24.07.2019 04:56 22,4 C 16,3 C 17,0 C 67 % 87 % 1018,1 hPa 0,0 l/m 0,0 km/h (0 Bft) S 180 14,1 C 16,3 C 0,0 km/h (0 Bft)
24.07.2019 04:54 22,4 C 16,4 C 17,0 C 67 % 87 % 1018,1 hPa 0,0 l/m 0,0 km/h (0 Bft) S 180 14,2 C 16,4 C 0,0 km/h (0 Bft)
24.07.2019 04:52 22,4 C 16,4 C 17,0 C 67 % 87 % 1018,1 hPa 0,0 l/m 0,0 km/h (0 Bft) S 180 14,2 C 16,4 C 0,0 km/h (0 Bft)
24.07.2019 04:50 22,4 C 16,5 C 17,1 C 67 % 87 % 1018,1 hPa 0,0 l/m 0,0 km/h (0 Bft) S-SO 157 14,3 C 16,5 C 0,0 km/h (0 Bft)
24.07.2019 04:48 22,4 C 16,5 C 17,1 C 67 % 87 % 1018,1 hPa 0,0 l/m 0,0 km/h (0 Bft) S 180 14,3 C 16,5 C 0,0 km/h (0 Bft)
24.07.2019 04:46 22,4 C 16,5 C 17,1 C 67 % 87 % 1018,1 hPa 0,0 l/m 0,0 km/h (0 Bft) S-SO 157 14,3 C 16,5 C 0,0 km/h (0 Bft)
24.07.2019 04:44 22,4 C 16,4 C 17,2 C 67 % 87 % 1018,1 hPa 0,0 l/m 0,0 km/h (0 Bft) S-SO 157 14,2 C 16,4 C 0,0 km/h (0 Bft)
24.07.2019 04:42 22,4 C 16,4 C 17,3 C 67 % 87 % 1018,1 hPa 0,0 l/m 0,5 km/h (0 Bft) S-SO 157 14,2 C 16,4 C 0,0 km/h (0 Bft)
24.07.2019 04:40 22,4 C 16,4 C 17,3 C 67 % 87 % 1018,1 hPa 0,0 l/m 0,5 km/h (0 Bft) S-SO 157 14,2 C 16,4 C 0,0 km/h (0 Bft)
24.07.2019 04:38 22,4 C 16,5 C 17,4 C 67 % 86 % 1018,2 hPa 0,0 l/m 1,0 km/h (0 Bft) S-SO 157 14,1 C 16,5 C 0,0 km/h (0 Bft)
24.07.2019 04:36 22,4 C 16,5 C 17,4 C 67 % 86 % 1018,2 hPa 0,0 l/m 1,0 km/h (0 Bft) S-SO 157 14,1 C 16,5 C 0,0 km/h (0 Bft)
24.07.2019 04:34 22,4 C 16,6 C 17,4 C 67 % 86 % 1018,2 hPa 0,0 l/m 1,2 km/h (1 Bft) S-SO 157 14,2 C 16,6 C 0,0 km/h (0 Bft)
24.07.2019 04:32 22,5 C 16,6 C 17,4 C 67 % 86 % 1018,2 hPa 0,0 l/m 1,0 km/h (0 Bft) S 180 14,2 C 16,6 C 2,7 km/h (1 Bft)
24.07.2019 04:30 22,5 C 16,7 C 17,3 C 67 % 86 % 1018,2 hPa 0,0 l/m 0,7 km/h (0 Bft) S-SO 157 14,3 C 16,7 C 0,0 km/h (0 Bft)
24.07.2019 04:28 22,5 C 16,8 C 17,3 C 67 % 86 % 1018,2 hPa 0,0 l/m 0,5 km/h (0 Bft) S-SO 157 14,4 C 16,8 C 2,4 km/h (1 Bft)
24.07.2019 04:26 22,6 C 16,8 C 17,4 C 67 % 86 % 1018,2 hPa 0,0 l/m 0,2 km/h (0 Bft) S-SO 157 14,4 C 16,8 C 0,0 km/h (0 Bft)
24.07.2019 04:24 22,6 C 16,8 C 17,5 C 67 % 86 % 1018,2 hPa 0,0 l/m 0,2 km/h (0 Bft) S 180 14,4 C 16,8 C 0,0 km/h (0 Bft)
24.07.2019 04:22 22,6 C 16,8 C 17,6 C 67 % 86 % 1018,2 hPa 0,0 l/m 0,0 km/h (0 Bft) S 180 14,4 C 16,8 C 0,0 km/h (0 Bft)
24.07.2019 04:20 22,7 C 16,8 C 17,6 C 67 % 86 % 1018,2 hPa 0,0 l/m 0,0 km/h (0 Bft) S 180 14,4 C 16,8 C 0,0 km/h (0 Bft)
24.07.2019 04:18 22,7 C 16,8 C 17,5 C 67 % 86 % 1018,3 hPa 0,0 l/m 0,0 km/h (0 Bft) S-SO 157 14,4 C 16,8 C 0,0 km/h (0 Bft)
24.07.2019 04:16 22,7 C 16,8 C 17,4 C 67 % 86 % 1018,3 hPa 0,0 l/m 0,0 km/h (0 Bft) S 180 14,4 C 16,8 C 0,0 km/h (0 Bft)
24.07.2019 04:14 22,7 C 16,9 C 17,5 C 67 % 86 % 1018,3 hPa 0,0 l/m 0,0 km/h (0 Bft) S-SW 202 14,5 C 16,9 C 0,0 km/h (0 Bft)
24.07.2019 04:12 22,8 C 17,0 C 17,6 C 67 % 86 % 1018,3 hPa 0,0 l/m 0,5 km/h (0 Bft) NW 315 14,6 C 17,0 C 0,0 km/h (0 Bft)
24.07.2019 04:10 22,8 C 17,0 C 17,6 C 67 % 86 % 1018,3 hPa 0,0 l/m 0,5 km/h (0 Bft) NW 315 14,6 C 17,0 C 0,0 km/h (0 Bft)
24.07.2019 04:08 22,8 C 17,0 C 17,7 C 67 % 86 % 1018,3 hPa 0,0 l/m 1,0 km/h (0 Bft) NW 315 14,6 C 17,0 C 0,0 km/h (0 Bft)
24.07.2019 04:06 22,8 C 17,0 C 17,6 C 67 % 85 % 1018,3 hPa 0,0 l/m 1,2 km/h (1 Bft) N-NW 337 14,5 C 17,0 C 0,0 km/h (0 Bft)
24.07.2019 04:04 22,8 C 17,0 C 17,6 C 67 % 85 % 1018,3 hPa 0,0 l/m 1,2 km/h (1 Bft) N-NW 337 14,5 C 17,0 C 0,0 km/h (0 Bft)
24.07.2019 04:02 22,8 C 17,0 C 17,6 C 67 % 85 % 1018,3 hPa 0,0 l/m 1,4 km/h (1 Bft) N-NW 337 14,5 C 17,0 C 4,6 km/h (1 Bft)
24.07.2019 04:00 22,8 C 17,0 C 17,5 C 67 % 85 % 1018,3 hPa 0,0 l/m 1,4 km/h (1 Bft) N 360 14,5 C 17,0 C 3,1 km/h (1 Bft)
24.07.2019 03:58 22,8 C 17,0 C 17,5 C 67 % 85 % 1018,6 hPa 0,0 l/m 1,7 km/h (1 Bft) N-NW 337 14,5 C 17,0 C 3,4 km/h (1 Bft)
24.07.2019 03:56 22,8 C 17,0 C 17,6 C 67 % 85 % 1018,6 hPa 0,0 l/m 1,2 km/h (1 Bft) NW 315 14,5 C 17,0 C 2,7 km/h (1 Bft)
24.07.2019 03:54 22,8 C 17,0 C 17,6 C 67 % 85 % 1018,6 hPa 0,0 l/m 1,2 km/h (1 Bft) N 360 14,5 C 17,0 C 0,0 km/h (0 Bft)
24.07.2019 03:52 22,8 C 17,0 C 17,6 C 67 % 85 % 1018,6 hPa 0,0 l/m 1,4 km/h (1 Bft) N-NW 337 14,5 C 17,0 C 2,4 km/h (1 Bft)
24.07.2019 03:50 22,8 C 17,0 C 17,5 C 67 % 85 % 1018,6 hPa 0,0 l/m 1,9 km/h (1 Bft) N-NW 337 14,5 C 17,0 C 3,1 km/h (1 Bft)
24.07.2019 03:48 22,8 C 16,9 C 17,5 C 67 % 85 % 1018,6 hPa 0,0 l/m 1,2 km/h (1 Bft) N-NW 337 14,4 C 16,9 C 2,9 km/h (1 Bft)
24.07.2019 03:46 22,8 C 16,9 C 17,6 C 67 % 84 % 1018,6 hPa 0,0 l/m 1,0 km/h (0 Bft) N-NW 337 14,2 C 16,9 C 0,0 km/h (0 Bft)
24.07.2019 03:44 22,8 C 16,9 C 17,5 C 67 % 84 % 1018,6 hPa 0,0 l/m 1,0 km/h (0 Bft) N 360 14,2 C 16,9 C 0,0 km/h (0 Bft)
24.07.2019 03:42 22,8 C 16,9 C 17,4 C 67 % 84 % 1018,6 hPa 0,0 l/m 0,7 km/h (0 Bft) N-NW 337 14,2 C 16,9 C 2,9 km/h (1 Bft)
24.07.2019 03:40 22,8 C 16,9 C 17,4 C 67 % 84 % 1018,6 hPa 0,0 l/m 0,5 km/h (0 Bft) N-NW 337 14,2 C 16,9 C 3,6 km/h (1 Bft)
24.07.2019 03:38 22,8 C 16,8 C 17,3 C 67 % 84 % 1018,6 hPa 0,0 l/m 0,0 km/h (0 Bft) N-NW 337 14,1 C 16,8 C 0,0 km/h (0 Bft)
24.07.2019 03:36 22,8 C 16,8 C 17,4 C 67 % 84 % 1018,6 hPa 0,0 l/m 0,0 km/h (0 Bft) S 180 14,1 C 16,8 C 0,0 km/h (0 Bft)
24.07.2019 03:34 22,7 C 16,9 C 17,5 C 67 % 84 % 1018,6 hPa 0,0 l/m 0,0 km/h (0 Bft) S 180 14,2 C 16,9 C 0,0 km/h (0 Bft)
24.07.2019 03:32 22,8 C 16,9 C 17,5 C 67 % 84 % 1018,6 hPa 0,0 l/m 0,0 km/h (0 Bft) S 180 14,2 C 16,9 C 0,0 km/h (0 Bft)
24.07.2019 03:30 22,8 C 17,0 C 17,6 C 67 % 84 % 1018,6 hPa 0,0 l/m 0,0 km/h (0 Bft) S 180 14,3 C 17,0 C 0,0 km/h (0 Bft)
24.07.2019 03:28 22,8 C 17,1 C 17,6 C 67 % 84 % 1018,6 hPa 0,0 l/m 0,0 km/h (0 Bft) S 180 14,4 C 17,1 C 0,0 km/h (0 Bft)
24.07.2019 03:26 22,8 C 17,1 C 17,6 C 67 % 83 % 1018,6 hPa 0,0 l/m 0,0 km/h (0 Bft) S 180 14,2 C 17,1 C 0,0 km/h (0 Bft)
24.07.2019 03:24 22,8 C 17,1 C 17,7 C 67 % 83 % 1018,6 hPa 0,0 l/m 0,0 km/h (0 Bft) S 180 14,2 C 17,1 C 0,0 km/h (0 Bft)
24.07.2019 03:22 22,8 C 17,1 C 17,6 C 67 % 83 % 1018,6 hPa 0,0 l/m 0,0 km/h (0 Bft) S 180 14,2 C 17,1 C 0,0 km/h (0 Bft)
24.07.2019 03:20 22,8 C 17,1 C 17,6 C 67 % 83 % 1018,6 hPa 0,0 l/m 0,2 km/h (0 Bft) S 180 14,2 C 17,1 C 0,0 km/h (0 Bft)
24.07.2019 03:18 22,8 C 17,1 C 17,6 C 67 % 83 % 1018,6 hPa 0,0 l/m 0,2 km/h (0 Bft) S 180 14,2 C 17,1 C 0,0 km/h (0 Bft)
24.07.2019 03:16 22,8 C 17,1 C 17,5 C 67 % 83 % 1018,6 hPa 0,0 l/m 0,2 km/h (0 Bft) S 180 14,2 C 17,1 C 0,0 km/h (0 Bft)
24.07.2019 03:14 22,8 C 17,1 C 17,5 C 67 % 83 % 1018,6 hPa 0,0 l/m 0,2 km/h (0 Bft) S 180 14,2 C 17,1 C 0,0 km/h (0 Bft)
24.07.2019 03:12 22,8 C 17,4 C 17,9 C 67 % 82 % 1018,6 hPa 0,0 l/m 0,0 km/h (0 Bft) S-SW 202 14,3 C 17,4 C 0,0 km/h (0 Bft)
24.07.2019 03:10 22,8 C 17,4 C 17,9 C 67 % 82 % 1018,6 hPa 0,0 l/m 0,0 km/h (0 Bft) S-SW 202 14,3 C 17,4 C 0,0 km/h (0 Bft)
24.07.2019 03:08 22,8 C 17,4 C 17,9 C 67 % 82 % 1018,6 hPa 0,0 l/m 0,0 km/h (0 Bft) S-SW 202 14,3 C 17,4 C 0,0 km/h (0 Bft)
24.07.2019 03:06 22,8 C 17,4 C 17,9 C 67 % 82 % 1018,6 hPa 0,0 l/m 0,0 km/h (0 Bft) S-SW 202 14,3 C 17,4 C 0,0 km/h (0 Bft)
24.07.2019 03:04 22,8 C 17,4 C 17,9 C 67 % 82 % 1018,6 hPa 0,0 l/m 0,0 km/h (0 Bft) S-SW 202 14,3 C 17,4 C 0,0 km/h (0 Bft)
24.07.2019 03:02 22,8 C 17,4 C 17,9 C 67 % 82 % 1018,6 hPa 0,0 l/m 0,0 km/h (0 Bft) S-SW 202 14,3 C 17,4 C 0,0 km/h (0 Bft)
24.07.2019 03:00 22,9 C 17,5 C 18,0 C 67 % 82 % 1018,6 hPa 0,0 l/m 0,0 km/h (0 Bft) S-SW 202 14,4 C 17,5 C 0,0 km/h (0 Bft)
24.07.2019 02:58 22,9 C 17,6 C 18,1 C 67 % 82 % 1018,8 hPa 0,0 l/m 0,7 km/h (0 Bft) S-SW 202 14,5 C 17,6 C 0,0 km/h (0 Bft)
24.07.2019 02:56 22,9 C 17,6 C 18,2 C 67 % 82 % 1018,8 hPa 0,0 l/m 0,7 km/h (0 Bft) S-SW 202 14,5 C 17,6 C 0,0 km/h (0 Bft)
24.07.2019 02:54 22,9 C 17,7 C 18,2 C 67 % 82 % 1018,8 hPa 0,0 l/m 1,0 km/h (0 Bft) W 270 14,6 C 17,7 C 0,0 km/h (0 Bft)
24.07.2019 02:52 22,9 C 17,8 C 18,1 C 67 % 82 % 1018,8 hPa 0,0 l/m 1,2 km/h (1 Bft) SW 225 14,7 C 17,8 C 0,0 km/h (0 Bft)
24.07.2019 02:50 22,9 C 17,9 C 17,9 C 67 % 82 % 1018,8 hPa 0,0 l/m 1,2 km/h (1 Bft) N-NW 337 14,8 C 17,9 C 0,0 km/h (0 Bft)
24.07.2019 02:48 22,9 C 18,0 C 17,9 C 67 % 82 % 1018,8 hPa 0,0 l/m 1,4 km/h (1 Bft) N-NW 337 14,9 C 18,0 C 3,1 km/h (1 Bft)
24.07.2019 02:46 22,9 C 18,0 C 17,9 C 67 % 82 % 1018,8 hPa 0,0 l/m 1,7 km/h (1 Bft) N-NO 22 14,9 C 18,0 C 0,0 km/h (0 Bft)
24.07.2019 02:44 22,9 C 18,0 C 17,8 C 67 % 82 % 1018,8 hPa 0,0 l/m 1,2 km/h (1 Bft) N 360 14,9 C 18,0 C 0,0 km/h (0 Bft)
24.07.2019 02:42 22,9 C 17,9 C 17,8 C 67 % 82 % 1018,8 hPa 0,0 l/m 1,2 km/h (1 Bft) N-NW 337 14,8 C 17,9 C 0,0 km/h (0 Bft)
24.07.2019 02:40 22,9 C 17,8 C 17,8 C 67 % 82 % 1018,8 hPa 0,0 l/m 1,2 km/h (1 Bft) N-NW 337 14,7 C 17,8 C 2,7 km/h (1 Bft)
24.07.2019 02:38 22,9 C 17,8 C 17,9 C 67 % 82 % 1018,8 hPa 0,0 l/m 0,7 km/h (0 Bft) N-NW 337 14,7 C 17,8 C 3,6 km/h (1 Bft)
24.07.2019 02:36 22,9 C 17,8 C 18,1 C 67 % 82 % 1018,8 hPa 0,0 l/m 0,0 km/h (0 Bft) N-NW 337 14,7 C 17,8 C 2,4 km/h (1 Bft)
24.07.2019 02:34 22,9 C 17,9 C 18,2 C 67 % 81 % 1018,8 hPa 0,0 l/m 0,0 km/h (0 Bft) N-NO 22 14,6 C 17,9 C 0,0 km/h (0 Bft)
24.07.2019 02:32 22,9 C 17,8 C 18,0 C 67 % 82 % 1018,8 hPa 0,0 l/m 0,0 km/h (0 Bft) N-NO 22 14,7 C 17,8 C 0,0 km/h (0 Bft)
24.07.2019 02:30 22,9 C 17,7 C 17,9 C 67 % 81 % 1018,8 hPa 0,0 l/m 0,0 km/h (0 Bft) N-NO 22 14,4 C 17,7 C 0,0 km/h (0 Bft)
24.07.2019 02:28 22,9 C 17,7 C 17,9 C 67 % 81 % 1018,8 hPa 0,0 l/m 0,7 km/h (0 Bft) N-NO 22 14,4 C 17,7 C 0,0 km/h (0 Bft)
24.07.2019 02:26 22,8 C 17,6 C 18,2 C 67 % 81 % 1018,8 hPa 0,0 l/m 0,7 km/h (0 Bft) N-NO 22 14,3 C 17,6 C 0,0 km/h (0 Bft)
24.07.2019 02:24 22,9 C 17,7 C 18,3 C 67 % 81 % 1018,8 hPa 0,0 l/m 0,7 km/h (0 Bft) O-SO 112 14,4 C 17,7 C 0,0 km/h (0 Bft)
24.07.2019 02:22 22,9 C 17,8 C 18,3 C 67 % 81 % 1018,8 hPa 0,0 l/m 1,0 km/h (0 Bft) O-SO 112 14,5 C 17,8 C 0,0 km/h (0 Bft)
24.07.2019 02:20 22,9 C 17,8 C 18,4 C 67 % 81 % 1018,8 hPa 0,0 l/m 1,0 km/h (0 Bft) SO 135 14,5 C 17,8 C 0,0 km/h (0 Bft)
24.07.2019 02:18 22,9 C 17,9 C 18,4 C 67 % 81 % 1019,1 hPa 0,0 l/m 0,7 km/h (0 Bft) SO 135 14,6 C 17,9 C 5,1 km/h (1 Bft)
24.07.2019 02:16 22,9 C 17,9 C 18,5 C 67 % 81 % 1019,1 hPa 0,0 l/m 0,5 km/h (0 Bft) S-SO 157 14,6 C 17,9 C 0,0 km/h (0 Bft)
24.07.2019 02:14 22,9 C 18,0 C 18,4 C 67 % 81 % 1019,1 hPa 0,0 l/m 0,2 km/h (0 Bft) S-SO 157 14,7 C 18,0 C 0,0 km/h (0 Bft)
24.07.2019 02:12 22,9 C 18,0 C 18,4 C 67 % 80 % 1019,1 hPa 0,0 l/m 0,2 km/h (0 Bft) SO 135 14,5 C 18,0 C 0,0 km/h (0 Bft)
24.07.2019 02:10 22,9 C 18,0 C 18,4 C 67 % 80 % 1019,1 hPa 0,0 l/m 0,0 km/h (0 Bft) O 90 14,5 C 18,0 C 0,0 km/h (0 Bft)
24.07.2019 02:08 22,9 C 18,1 C 18,5 C 67 % 80 % 1019,1 hPa 0,0 l/m 0,0 km/h (0 Bft) O-SO 112 14,6 C 18,1 C 0,0 km/h (0 Bft)
24.07.2019 02:06 22,9 C 18,1 C 18,5 C 67 % 80 % 1019,1 hPa 0,0 l/m 0,0 km/h (0 Bft) S-SO 157 14,6 C 18,1 C 0,0 km/h (0 Bft)
24.07.2019 02:04 22,9 C 18,1 C 18,6 C 67 % 80 % 1019,1 hPa 0,0 l/m 0,0 km/h (0 Bft) S-SO 157 14,6 C 18,1 C 0,0 km/h (0 Bft)
24.07.2019 02:02 22,9 C 18,1 C 18,5 C 67 % 80 % 1019,1 hPa 0,0 l/m 0,0 km/h (0 Bft) O-SO 112 14,6 C 18,1 C 0,0 km/h (0 Bft)
24.07.2019 02:00 22,9 C 18,2 C 18,6 C 67 % 80 % 1019,1 hPa 0,0 l/m 0,7 km/h (0 Bft) O-SO 112 14,7 C 18,2 C 0,0 km/h (0 Bft)
24.07.2019 01:58 22,9 C 18,2 C 18,7 C 67 % 80 % 1019,1 hPa 0,0 l/m 1,4 km/h (1 Bft) SO 135 14,7 C 18,2 C 0,0 km/h (0 Bft)
24.07.2019 01:56 22,9 C 18,2 C 18,9 C 67 % 80 % 1019,1 hPa 0,0 l/m 1,7 km/h (1 Bft) S-SO 157 14,7 C 18,2 C 0,0 km/h (0 Bft)
24.07.2019 01:54 22,9 C 18,2 C 19,0 C 67 % 80 % 1019,1 hPa 0,0 l/m 1,7 km/h (1 Bft) S-SO 157 14,7 C 18,2 C 0,0 km/h (0 Bft)
24.07.2019 01:52 22,9 C 18,2 C 19,0 C 68 % 80 % 1019,1 hPa 0,0 l/m 1,7 km/h (1 Bft) NO 45 14,7 C 18,2 C 2,9 km/h (1 Bft)
24.07.2019 01:50 23,0 C 18,2 C 18,7 C 68 % 80 % 1019,1 hPa 0,0 l/m 1,4 km/h (1 Bft) O-NO 67 14,7 C 18,2 C 4,8 km/h (1 Bft)
24.07.2019 01:48 22,9 C 18,2 C 18,7 C 68 % 80 % 1019,1 hPa 0,0 l/m 1,2 km/h (1 Bft) NO 45 14,7 C 18,2 C 0,0 km/h (0 Bft)
24.07.2019 01:46 23,0 C 18,2 C 18,8 C 68 % 80 % 1019,1 hPa 0,0 l/m 1,7 km/h (1 Bft) NO 45 14,7 C 18,2 C 0,0 km/h (0 Bft)
24.07.2019 01:44 22,9 C 18,2 C 18,9 C 68 % 80 % 1019,1 hPa 0,0 l/m 2,4 km/h (1 Bft) NO 45 14,7 C 18,2 C 0,0 km/h (0 Bft)
24.07.2019 01:42 22,9 C 18,2 C 19,1 C 68 % 80 % 1019,1 hPa 0,0 l/m 3,4 km/h (1 Bft) O-SO 112 14,7 C 18,2 C 0,0 km/h (0 Bft)
24.07.2019 01:40 23,0 C 18,1 C 19,1 C 68 % 80 % 1019,1 hPa 0,0 l/m 4,1 km/h (1 Bft) S-SO 157 14,6 C 18,1 C 3,4 km/h (1 Bft)
24.07.2019 01:38 23,0 C 18,1 C 18,9 C 67 % 80 % 1019,3 hPa 0,0 l/m 4,8 km/h (1 Bft) S-SO 157 14,6 C 18,1 C 4,3 km/h (1 Bft)
24.07.2019 01:36 23,0 C 17,9 C 18,9 C 67 % 79 % 1019,3 hPa 0,0 l/m 4,3 km/h (1 Bft) S-SO 157 14,2 C 17,9 C 5,8 km/h (2 Bft)
24.07.2019 01:34 23,0 C 17,9 C 19,1 C 67 % 79 % 1019,3 hPa 0,0 l/m 4,1 km/h (1 Bft) SO 135 14,2 C 17,9 C 5,8 km/h (2 Bft)
24.07.2019 01:32 23,1 C 17,8 C 19,2 C 67 % 79 % 1019,3 hPa 0,0 l/m 3,4 km/h (1 Bft) S-SO 157 14,1 C 17,8 C 5,6 km/h (1 Bft)
24.07.2019 01:30 23,1 C 17,8 C 19,3 C 67 % 79 % 1019,3 hPa 0,0 l/m 2,7 km/h (1 Bft) SO 135 14,1 C 17,8 C 5,6 km/h (1 Bft)
24.07.2019 01:28 23,1 C 17,9 C 19,3 C 67 % 78 % 1019,3 hPa 0,0 l/m 1,7 km/h (1 Bft) S-SO 157 14,0 C 17,9 C 4,6 km/h (1 Bft)
24.07.2019 01:26 23,2 C 18,0 C 19,3 C 67 % 78 % 1019,3 hPa 0,0 l/m 1,2 km/h (1 Bft) S-SO 157 14,1 C 18,0 C 2,7 km/h (1 Bft)
24.07.2019 01:24 23,2 C 18,2 C 19,4 C 67 % 78 % 1019,3 hPa 0,0 l/m 1,0 km/h (0 Bft) S-SO 157 14,3 C 18,2 C 4,1 km/h (1 Bft)
24.07.2019 01:22 23,2 C 18,2 C 19,4 C 67 % 78 % 1019,3 hPa 0,0 l/m 0,7 km/h (0 Bft) S-SO 157 14,3 C 18,2 C 0,0 km/h (0 Bft)
24.07.2019 01:20 23,2 C 18,3 C 19,3 C 67 % 78 % 1019,3 hPa 0,0 l/m 0,7 km/h (0 Bft) NO 45 14,4 C 18,3 C 0,0 km/h (0 Bft)
24.07.2019 01:18 23,2 C 18,4 C 19,2 C 67 % 78 % 1019,2 hPa 0,0 l/m 1,0 km/h (0 Bft) NO 45 14,5 C 18,4 C 0,0 km/h (0 Bft)
24.07.2019 01:16 23,2 C 18,4 C 19,2 C 67 % 78 % 1019,2 hPa 0,0 l/m 1,2 km/h (1 Bft) N-NO 22 14,5 C 18,4 C 0,0 km/h (0 Bft)
24.07.2019 01:14 23,2 C 18,5 C 19,2 C 67 % 77 % 1019,2 hPa 0,0 l/m 1,0 km/h (0 Bft) N 360 14,4 C 18,5 C 3,4 km/h (1 Bft)
24.07.2019 01:12 23,2 C 18,6 C 19,1 C 67 % 77 % 1019,2 hPa 0,0 l/m 0,7 km/h (0 Bft) NO 45 14,5 C 18,6 C 2,9 km/h (1 Bft)
24.07.2019 01:10 23,2 C 18,7 C 19,1 C 67 % 77 % 1019,2 hPa 0,0 l/m 0,7 km/h (0 Bft) N-NW 337 14,6 C 18,7 C 3,9 km/h (1 Bft)
24.07.2019 01:08 23,2 C 18,7 C 19,1 C 67 % 77 % 1019,2 hPa 0,0 l/m 0,7 km/h (0 Bft) N 360 14,6 C 18,7 C 2,9 km/h (1 Bft)
24.07.2019 01:06 23,2 C 18,8 C 19,1 C 67 % 77 % 1019,2 hPa 0,0 l/m 0,2 km/h (0 Bft) N-NW 337 14,7 C 18,8 C 2,4 km/h (1 Bft)
24.07.2019 01:04 23,2 C 18,9 C 19,1 C 67 % 77 % 1019,2 hPa 0,0 l/m 0,2 km/h (0 Bft) N-NW 337 14,8 C 18,9 C 0,0 km/h (0 Bft)
24.07.2019 01:02 23,2 C 19,0 C 19,0 C 67 % 77 % 1019,2 hPa 0,0 l/m 0,2 km/h (0 Bft) N-NW 337 14,9 C 19,0 C 0,0 km/h (0 Bft)
24.07.2019 01:00 23,2 C 19,0 C 18,9 C 67 % 76 % 1019,2 hPa 0,0 l/m 0,2 km/h (0 Bft) N-NW 337 14,7 C 19,0 C 0,0 km/h (0 Bft)
24.07.2019 00:58 23,2 C 19,0 C 19,0 C 67 % 76 % 1019,4 hPa 0,0 l/m 0,7 km/h (0 Bft) N-NO 22 14,7 C 19,0 C 0,0 km/h (0 Bft)
24.07.2019 00:56 23,2 C 19,0 C 19,0 C 67 % 76 % 1019,4 hPa 0,0 l/m 1,2 km/h (1 Bft) N-NW 337 14,7 C 19,0 C 0,0 km/h (0 Bft)
24.07.2019 00:54 23,2 C 19,0 C 19,1 C 67 % 76 % 1019,4 hPa 0,0 l/m 2,2 km/h (1 Bft) N-NW 337 14,7 C 19,0 C 0,0 km/h (0 Bft)
24.07.2019 00:52 23,2 C 18,9 C 19,0 C 67 % 76 % 1019,4 hPa 0,0 l/m 3,1 km/h (1 Bft) N-NO 22 14,6 C 18,9 C 0,0 km/h (0 Bft)
24.07.2019 00:50 23,2 C 18,9 C 18,9 C 67 % 76 % 1019,4 hPa 0,0 l/m 3,9 km/h (1 Bft) N 360 14,6 C 18,9 C 0,0 km/h (0 Bft)
24.07.2019 00:48 23,2 C 18,8 C 19,0 C 67 % 76 % 1019,4 hPa 0,0 l/m 4,8 km/h (1 Bft) N-NW 337 14,5 C 18,8 C 3,9 km/h (1 Bft)
24.07.2019 00:46 23,2 C 18,8 C 19,0 C 67 % 76 % 1019,4 hPa 0,0 l/m 5,3 km/h (1 Bft) N 360 14,5 C 18,8 C 4,1 km/h (1 Bft)
24.07.2019 00:44 23,2 C 18,8 C 19,0 C 67 % 76 % 1019,4 hPa 0,0 l/m 5,6 km/h (1 Bft) N 360 14,5 C 18,8 C 3,6 km/h (1 Bft)
24.07.2019 00:42 23,3 C 18,8 C 18,9 C 67 % 76 % 1019,4 hPa 0,0 l/m 5,3 km/h (1 Bft) N 360 14,5 C 18,8 C 5,1 km/h (1 Bft)
24.07.2019 00:40 23,2 C 18,9 C 18,9 C 67 % 76 % 1019,4 hPa 0,0 l/m 4,1 km/h (1 Bft) N-NW 337 14,6 C 18,9 C 6,3 km/h (2 Bft)
24.07.2019 00:38 23,2 C 18,9 C 18,9 C 67 % 75 % 1019,6 hPa 0,0 l/m 3,1 km/h (1 Bft) N-NW 337 14,4 C 18,9 C 6,3 km/h (2 Bft)
24.07.2019 00:36 23,2 C 19,0 C 18,8 C 67 % 75 % 1019,6 hPa 0,0 l/m 1,9 km/h (1 Bft) N 360 14,5 C 19,0 C 7,0 km/h (2 Bft)
24.07.2019 00:34 23,2 C 19,0 C 18,8 C 66 % 75 % 1019,6 hPa 0,0 l/m 1,0 km/h (0 Bft) NW 315 14,5 C 19,0 C 5,6 km/h (1 Bft)
24.07.2019 00:32 23,2 C 19,0 C 18,8 C 67 % 75 % 1019,6 hPa 0,0 l/m 0,2 km/h (0 Bft) N 360 14,5 C 19,0 C 2,9 km/h (1 Bft)
24.07.2019 00:30 23,2 C 19,0 C 18,8 C 67 % 75 % 1019,6 hPa 0,0 l/m 0,0 km/h (0 Bft) N 360 14,5 C 19,0 C 0,0 km/h (0 Bft)
24.07.2019 00:28 23,2 C 19,0 C 18,9 C 67 % 75 % 1019,6 hPa 0,0 l/m 0,0 km/h (0 Bft) N-NW 337 14,5 C 19,0 C 0,0 km/h (0 Bft)
24.07.2019 00:26 23,2 C 19,0 C 19,1 C 67 % 74 % 1019,6 hPa 0,0 l/m 0,0 km/h (0 Bft) N-NW 337 14,3 C 19,0 C 0,0 km/h (0 Bft)
24.07.2019 00:24 23,4 C 19,1 C 19,4 C 67 % 74 % 1019,6 hPa 0,0 l/m 0,0 km/h (0 Bft) NW 315 14,4 C 19,1 C 0,0 km/h (0 Bft)
24.07.2019 00:22 23,2 C 19,1 C 19,5 C 67 % 74 % 1019,6 hPa 0,0 l/m 0,2 km/h (0 Bft) W-NW 292 14,4 C 19,1 C 0,0 km/h (0 Bft)
24.07.2019 00:20 23,4 C 19,3 C 19,4 C 67 % 74 % 1019,6 hPa 0,0 l/m 1,2 km/h (1 Bft) W 270 14,5 C 19,3 C 0,0 km/h (0 Bft)
24.07.2019 00:18 23,4 C 19,3 C 19,4 C 67 % 74 % 1019,5 hPa 0,0 l/m 2,4 km/h (1 Bft) W 270 14,5 C 19,3 C 0,0 km/h (0 Bft)
24.07.2019 00:16 23,4 C 19,3 C 19,3 C 67 % 74 % 1019,5 hPa 0,0 l/m 3,1 km/h (1 Bft) NW 315 14,5 C 19,3 C 0,0 km/h (0 Bft)
24.07.2019 00:14 23,4 C 19,4 C 19,2 C 67 % 74 % 1019,5 hPa 0,0 l/m 4,1 km/h (1 Bft) NW 315 14,6 C 19,4 C 0,0 km/h (0 Bft)
24.07.2019 00:12 23,4 C 19,4 C 18,9 C 67 % 74 % 1019,5 hPa 0,0 l/m 5,1 km/h (1 Bft) N-NO 22 14,6 C 19,4 C 2,4 km/h (1 Bft)
24.07.2019 00:10 23,4 C 19,4 C 18,9 C 66 % 74 % 1019,5 hPa 0,0 l/m 2,4 km/h (1 Bft) N-NW 337 14,6 C 19,4 C 5,6 km/h (1 Bft)
24.07.2019 00:08 23,4 C 19,4 C 18,9 C 67 % 74 % 1019,5 hPa 0,0 l/m 2,4 km/h (1 Bft) N-NW 337 14,6 C 19,4 C 5,6 km/h (1 Bft)
24.07.2019 00:06 23,4 C 19,4 C 18,9 C 67 % 74 % 1019,5 hPa 0,0 l/m 2,4 km/h (1 Bft) N-NW 337 14,6 C 19,4 C 5,6 km/h (1 Bft)
24.07.2019 00:04 23,4 C 19,4 C 18,9 C 67 % 74 % 1019,5 hPa 0,0 l/m 2,4 km/h (1 Bft) N-NW 337 14,6 C 19,4 C 5,6 km/h (1 Bft)
24.07.2019 00:02 23,5 C 19,4 C 18,9 C 67 % 74 % 1019,5 hPa 0,0 l/m 2,4 km/h (1 Bft) N-NW 337 14,6 C 19,4 C 5,6 km/h (1 Bft)
24.07.2019 00:00 23,5 C 19,3 C 18,9 C 67 % 73 % 1019,5 hPa 0,0 l/m 1,7 km/h (1 Bft) N 360 14,3 C 19,3 C 5,1 km/h (1 Bft)
_ Min-Zeit 06:26 06:14 05:01 00:10 00:00 04:40 - 00:24 - - 06:14 06:14 00:14
Minimum _ 22,0 C 15,4 C 16,8 C 66 % 73 % 1018,1 hPa - 0,0 km/h (0 Bft) - - 13,6 C 15,4 C 0,0 km/h (0 Bft)
_ Max-Zeit 00:00 00:02 00:22 01:40 06:20 00:20 00:00 00:44 - - 02:44 00:02 00:36
Maximum _ 23,5 C 19,4 C 19,5 C 68 % 90 % 1019,6 hPa 0,0 l/m 5,6 km/h
N (1 Bft)
- - 14,9 C 19,4 C 7,0 km/h
N (2 Bft)
Durchschnitt _ 22,8 C 17,4 C 18,0 C 67 % 83 % 1018,7 hPa #0,0 l/m 0,9 km/h (0 Bft) N-NW - 14,3 C 17,4 C 1,0 km/h (0 Bft)